Meriden, CT

12:00 AM EDT on April 30, 2017 (GMT -0400)
Meriden Markham Municipal

Weather History for KMMK - October, 2013

Change the Weather History Date:

Thursday, October 3, 2013

  Actual Average (KOXC) Record (KOXC)
Temperature  
Mean Temperature 62 °F -  
Max Temperature 78 °F 61 °F 77 °F (2001)
Min Temperature 46 °F 42 °F 32 °F (2003)
Degree Days  
Heating Degree Days 3    
Growing Degree Days 12 (Base 50)    
Moisture  
Dew Point 50 °F    
Average Humidity 86    
Maximum Humidity 100    
Minimum Humidity 32    
Precipitation  
Precipitation 0.00 in - - ()
Sea Level Pressure  
Sea Level Pressure 30.06 in    
Wind  
Wind Speed 0 mph (West)    
Max Wind Speed 7 mph    
Max Gust Speed -    
Visibility 4 miles    
Events Fog    
Averages and records for this station are not official NWS values.
T = Trace of Precipitation, MM = Missing Value Source: NWS Daily Summary

Daily Weather History Graph

Daily Weather History Graph

Search for Another Location

Airport or City:

Trip Planner

Search our weather history database for the weather conditions in past years. The results will help you decide how hot, cold, wet, or windy it might be!

Date:

Astronomy

Oct. 03, 2013 Rise Set
Actual Time 6:50 AM EDT 6:29 PM EDT
Civil Twilight 6:22 AM EDT 6:56 PM EDT
Nautical Twilight 5:50 AM EDT 7:29 PM EDT
Astronomical Twilight 5:18 AM EDT 8:01 PM EDT
Moon 5:20 AM EDT (10/3) 5:36 PM EDT (10/3)
Length of Visible Light 12h 34m
Length of Day
11h 38m
Waning Crescent, 2% of the Moon is Illuminated
Oct 3
Waning Crescent
Oct 4
New
Oct 11
First Quarter
Oct 18
Full
Oct 26
Last Quarter

Hourly Weather History & Observations

Time (EDT) Temp. Dew Point Humidity Pressure Visibility Wind Dir Wind Speed Gust Speed Precip Events Conditions
12:04 AM 57.2 °F 55.4 °F 94% 30.02 in 1.5 mi Calm Calm - N/A   Clear
12:06 AM 57.2 °F 55.4 °F 94% 30.02 in 1.0 mi Calm Calm - N/A   Mist
12:19 AM 55.4 °F 53.6 °F 94% 30.02 in 0.2 mi Calm Calm - N/A Fog Fog
12:34 AM 55.4 °F 53.6 °F 94% 30.02 in 0.5 mi Calm Calm - N/A Fog Fog
12:43 AM 57.2 °F 55.4 °F 94% 30.02 in 1.8 mi Calm Calm - N/A   Partly Cloudy
12:50 AM 57.2 °F 55.4 °F 94% 30.03 in 5.0 mi Calm Calm - N/A   Partly Cloudy
12:53 AM 57.0 °F 55.0 °F 93% 30.02 in 5.0 mi Calm Calm - N/A   Clear
12:57 AM 55.4 °F 55.4 °F 100% 30.03 in 1.2 mi Calm Calm - N/A   Partly Cloudy
1:00 AM 55.4 °F 53.6 °F 94% 30.03 in 0.8 mi Calm Calm - N/A   Mist
1:20 AM 53.6 °F 51.8 °F 94% 30.03 in 0.2 mi Calm Calm - N/A Fog Fog
1:32 AM 55.4 °F 53.6 °F 94% 30.03 in 1.0 mi Calm Calm - N/A   Mist
1:34 AM 55.4 °F 53.6 °F 94% 30.03 in 2.5 mi Calm Calm - N/A   Scattered Clouds
1:41 AM 53.6 °F 51.8 °F 94% 30.04 in 3.0 mi Calm Calm - N/A   Partly Cloudy
1:47 AM 51.8 °F 51.8 °F 100% 30.04 in 1.5 mi Calm Calm - N/A   Partly Cloudy
1:48 AM 52.0 °F 51.1 °F 97% 30.04 in 1.2 mi Calm Calm - N/A   Partly Cloudy
1:51 AM 51.8 °F 51.8 °F 100% 30.04 in 0.8 mi Calm Calm - N/A   Clear
1:58 AM 53.6 °F 51.8 °F 94% 30.04 in 0.2 mi Calm Calm - N/A Fog Fog
2:09 AM 53.6 °F 51.8 °F 94% 30.04 in 1.2 mi Calm Calm - N/A   Partly Cloudy
2:17 AM 53.6 °F 51.8 °F 94% 30.04 in 2.0 mi Calm Calm - N/A   Partly Cloudy
2:20 AM 51.8 °F 51.8 °F 100% 30.04 in 1.0 mi Calm Calm - N/A   Mist
2:24 AM 51.8 °F 51.8 °F 100% 30.04 in 0.2 mi Calm Calm - N/A Fog Fog
2:53 AM 51.1 °F 50.0 °F 96% 30.04 in 0.2 mi Calm Calm - N/A Fog Fog
3:23 AM 51.8 °F 48.2 °F 88% 30.05 in 0.8 mi Calm Calm - N/A   Mist
3:40 AM 51.8 °F 50.0 °F 94% 30.05 in 1.8 mi Calm Calm - N/A   Partly Cloudy
3:53 AM 46.9 °F 46.9 °F 100% 30.05 in 0.5 mi South 3.5 mph - N/A Fog Fog
4:19 AM 48.2 °F 48.2 °F 100% 30.06 in 1.0 mi Calm Calm - N/A   Mist
4:29 AM 48.2 °F 46.4 °F 93% 30.06 in 0.8 mi Calm Calm - N/A   Mist
4:34 AM 48.2 °F 46.4 °F 93% 30.06 in 1.2 mi Calm Calm - N/A   Scattered Clouds
4:45 AM 50.0 °F 46.4 °F 87% 30.06 in 0.5 mi Calm Calm - N/A Fog Fog
4:53 AM 48.0 °F 46.0 °F 93% 30.06 in 0.5 mi Calm Calm - N/A Fog Fog
5:06 AM 48.2 °F 46.4 °F 93% 30.06 in 0.2 mi Calm Calm - N/A Fog Fog
5:38 AM 46.4 °F 44.6 °F 93% 30.07 in 0.8 mi Calm Calm - N/A   Mist
5:42 AM 46.4 °F 44.6 °F 93% 30.07 in 1.2 mi Calm Calm - N/A   Scattered Clouds
5:50 AM 50.0 °F 48.2 °F 94% 30.07 in 2.5 mi WNW 3.5 mph - N/A   Scattered Clouds
5:53 AM 50.0 °F 48.0 °F 93% 30.07 in 2.5 mi Calm Calm - N/A   Partly Cloudy
6:00 AM 48.2 °F 46.4 °F 93% 30.07 in 4.0 mi Calm Calm - N/A   Partly Cloudy
6:20 AM 46.4 °F 44.6 °F 93% 30.08 in 1.8 mi Calm Calm - N/A   Clear
6:22 AM 46.4 °F 44.6 °F 93% 30.08 in 1.0 mi Calm Calm - N/A   Mist
6:41 AM 46.4 °F 44.6 °F 93% 30.08 in 2.0 mi Calm Calm - N/A   Partly Cloudy
6:53 AM 48.0 °F 45.0 °F 89% 30.09 in 1.0 mi Calm Calm - N/A   Mist
7:04 AM 46.4 °F 44.6 °F 93% 30.09 in 1.2 mi Calm Calm - N/A   Clear
7:12 AM 46.4 °F 46.4 °F 100% 30.09 in 1.2 mi Calm Calm - N/A   Partly Cloudy
7:22 AM 48.2 °F 46.4 °F 93% 30.10 in 0.8 mi Calm Calm - N/A   Mist
7:29 AM 48.2 °F 46.4 °F 93% 30.10 in 1.2 mi Calm Calm - N/A   Partly Cloudy
7:32 AM 48.2 °F 46.4 °F 93% 30.10 in 3.0 mi Calm Calm - N/A   Partly Cloudy
7:53 AM 51.1 °F 48.9 °F 92% 30.10 in 7.0 mi Calm Calm - N/A   Clear
8:53 AM 57.0 °F 53.1 °F 87% 30.12 in 10.0 mi Calm Calm - N/A   Clear
9:53 AM 68.0 °F 50.0 °F 52% 30.12 in 10.0 mi NW 3.5 mph - N/A   Clear
10:53 AM 72.0 °F 46.9 °F 41% 30.11 in 10.0 mi WNW 6.9 mph - N/A   Clear
11:53 AM 75.0 °F 46.0 °F 36% 30.10 in 10.0 mi NNW 5.8 mph - N/A   Clear
12:53 PM 77.0 °F 48.0 °F 36% 30.07 in 10.0 mi Variable 6.9 mph - N/A   Clear
1:53 PM 78.1 °F 46.9 °F 33% 30.06 in 10.0 mi WNW 6.9 mph - N/A   Clear
2:53 PM 77.0 °F 46.0 °F 33% 30.04 in 10.0 mi West 5.8 mph - N/A   Clear
3:53 PM 75.9 °F 44.1 °F 32% 30.04 in 10.0 mi West 4.6 mph - N/A   Clear
4:53 PM 72.0 °F 53.1 °F 51% 30.04 in 10.0 mi SW 3.5 mph - N/A   Clear
5:53 PM 66.9 °F 57.0 °F 70% 30.04 in 10.0 mi Calm Calm - N/A   Clear
6:53 PM 63.0 °F 57.0 °F 81% 30.05 in 10.0 mi Calm Calm - N/A   Clear
7:53 PM 61.0 °F 57.0 °F 87% 30.06 in 10.0 mi Calm Calm - N/A   Clear
8:53 PM 59.0 °F 55.0 °F 87% 30.06 in 10.0 mi Calm Calm - N/A   Clear
9:53 PM 57.9 °F 55.0 °F 90% 30.08 in 10.0 mi Calm Calm - N/A   Clear
10:53 PM 57.0 °F 54.0 °F 89% 30.08 in 9.0 mi Calm Calm - N/A   Clear